Location: Gälforsberget
(66.6500°N, 22.4167°E)
Time: 22:04:47
(UTC+00:00)

Cosmos 2278 Rocket - Pass Details

Date: 11 April 2026
Orbit: 839 x 846 km, 71.0° (Epoch: 13 May)

Event Time Altitude Azimuth Distance (km) Brightness Sun altitude
Rises 19:33:50 0° 315° (NW) 3,420 8.0 -8.3°
Reaches altitude 10° 19:36:27 10° 307° (NW) 2,482 6.3 -8.4°
Maximum altitude 19:41:35 36° 243° (WSW) 1,326 3.4 -8.8°
Drops below altitude 10° 19:46:41 10° 179° (S) 2,469 4.2 -9.1°
Enters shadow 19:47:51 - 174° (S) 2,883 4.5 -9.2°
